Wind_Speed
15 16 15 15 14 14 14 14 15 16 15 14 15 15 15 16 16 17 17 17 18 18 18 19 20 21 22 23 24 25 27 29 30 32 33 34 35 36 37 39 41 43 45 47
15 15 14 13 12 12 13 13 13 14 14 14 15 16 16 16 16 17 17 18 19 19 20 21 21 22 23 24 25 26 28 29 31 32 34 35 36 37 39 40 42 44 46 48
14 14 13 13 13 13 13 13 12 12 14 16 16 17 17 17 17 17 18 19 20 21 22 23 23 24 25 26 27 28 29 30 31 33 34 35 36 38 39 42 44 46 47 49
14 13 13 13 13 13 13 14 13 13 14 16 18 20 20 18 18 18 19 19 21 22 23 24 26 27 27 28 28 28 29 30 32 33 34 36 37 38 40 43 44 46 48 50
14 14 14 14 14 14 15 16 16 16 16 17 18 20 22 21 20 20 20 20 21 22 23 24 26 27 27 28 28 28 29 30 32 33 35 36 38 39 41 43 45 48 50 52
16 15 15 15 16 16 16 18 18 18 18 18 18 20 22 23 22 22 22 21 21 22 22 23 24 26 27 27 28 29 30 31 32 34 35 37 38 40 42 44 46 48 50 53
17 16 16 17 17 17 18 19 20 20 19 19 19 20 22 23 24 24 23 22 21 21 21 22 24 26 27 28 29 30 31 32 33 34 36 38 40 41 43 45 47 49 52 54
18 17 18 18 19 19 20 20 21 22 21 20 20 21 23 24 25 24 23 21 20 20 20 22 24 26 27 28 30 31 33 34 36 37 39 41 42 44 46 48 50 51 53 55
19 19 19 19 20 21 21 21 22 24 24 22 21 22 24 25 25 23 22 20 20 20 22 24 26 27 29 30 32 34 35 37 39 40 42 44 46 47 49 51 53 54 56 57
21 21 20 21 22 23 23 23 24 25 26 26 23 22 24 24 23 22 21 21 22 23 25 26 28 30 32 34 36 38 39 41 42 44 46 48 50 52 53 55 57 58 60 61
23 23 21 22 23 24 24 25 26 27 27 28 26 21 23 23 23 23 23 23 25 26 28 30 32 34 36 37 40 42 44 46 47 49 51 53 55 57 59 61 62 63 65 66
25 25 23 24 25 26 26 26 27 28 29 28 26 21 23 23 24 24 25 27 29 31 33 34 36 38 40 42 44 46 49 51 53 55 57 59 61 63 65 66 67 68 69 70
27 27 26 25 27 28 28 28 29 29 29 28 25 21 24 26 26 27 28 31 33 35 37 39 41 43 45 47 49 51 54 56 58 61 63 65 67 68 70 71 72 73 73 72
29 29 28 28 29 30 29 29 29 30 30 28 24 22 23 27 29 30 33 35 37 39 41 43 45 47 49 52 54 57 59 61 64 66 68 70 72 73 75 76 76 76 75 74
32 31 31 30 31 32 30 29 30 31 31 30 27 27 26 29 31 34 36 38 40 42 45 47 50 52 54 57 60 62 64 67 69 72 74 75 77 78 78 78 78 77 75 74
33 34 33 32 32 32 30 29 30 31 32 32 31 30 30 32 34 37 39 41 43 46 49 52 54 57 59 62 65 67 69 72 75 77 78 79 80 79 79 78 77 75 74 72
34 35 35 34 32 33 31 30 31 32 33 33 32 32 34 35 38 40 42 45 47 50 53 56 59 61 64 67 69 72 74 76 79 80 81 81 80 79 78 76 75 73 71 69
35 35 37 36 34 33 32 32 32 32 32 33 34 35 37 39 41 43 46 49 52 55 58 61 63 66 68 71 74 76 78 79 81 82 82 81 79 77 75 73 71 69 68 66
35 36 38 38 37 34 32 33 32 33 34 35 37 38 40 42 44 47 50 53 56 59 62 65 67 70 72 75 77 79 80 81 82 81 80 78 75 73 70 68 66 65 63 62
36 37 39 39 38 36 33 34 35 36 37 37 39 41 43 45 48 50 53 56 59 62 65 68 71 73 75 77 79 81 81 82 81 79 76 73 70 68 65 63 62 61 60 58
36 37 38 39 39 37 36 37 37 39 40 41 42 44 46 49 52 55 58 61 64 66 69 71 74 75 77 79 81 81 81 80 79 76 72 68 65 64 62 61 60 59 57 55
36 37 37 38 39 39 39 39 40 41 42 44 46 48 51 53 56 59 62 65 67 69 71 73 75 76 78 80 80 80 78 77 74 70 66 63 61 60 60 59 57 56 55 53
36 36 37 38 39 41 41 42 43 44 45 47 50 52 55 58 60 63 65 67 69 71 73 75 76 77 78 78 78 77 75 72 68 64 61 60 59 58 58 57 55 53 53 52
36 37 38 39 40 42 43 44 45 46 49 51 54 56 59 62 64 66 68 69 71 73 74 76 77 77 76 75 74 72 70 67 63 61 59 58 57 56 54 53 52 51 50 49
35 37 39 41 42 43 44 46 47 50 52 54 57 60 63 65 66 68 69 71 72 74 75 76 76 75 74 73 70 67 65 62 60 58 57 56 55 54 51 50 50 48 47 47
35 39 42 42 42 44 46 48 50 52 54 57 60 62 64 66 67 69 70 71 73 74 75 75 73 72 71 69 65 63 61 60 58 56 55 53 52 50 49 47 45 45 45 44
Wind_Direction
269 270 270 271 273 276 279 280 280 283 286 288 289 291 292 294 297 299 301 302 301 299 295 292 290 290 289 287 285 284 282 281 280 278 276 275 274 273 273 273 273 272 272 272
267 268 270 272 273 275 275 275 278 285 291 293 293 295 297 298 301 302 302 301 300 299 296 295 294 293 291 289 286 284 282 281 280 279 279 278 277 276 275 274 273 273 273 274
263 266 269 271 273 274 276 278 282 287 293 296 297 296 298 300 301 299 298 297 296 295 295 295 293 292 290 288 286 285 284 283 282 281 281 280 279 279 278 277 277 277 277 277
259 261 265 268 271 275 280 284 287 289 291 293 296 297 298 299 298 295 293 293 294 295 295 295 294 293 292 290 289 288 287 286 285 285 284 283 283 282 280 280 280 280 279 279
257 260 264 267 272 277 281 286 289 291 292 293 295 297 298 299 296 294 295 296 297 297 297 296 295 295 295 294 294 294 293 292 291 290 288 287 286 285 284 283 282 281 280 280
257 261 265 270 274 279 283 286 288 290 294 295 295 295 296 296 296 299 301 302 302 300 299 298 297 297 298 298 298 298 297 296 295 294 293 291 290 289 287 286 285 284 283 282
258 261 265 270 275 279 283 287 290 293 296 297 297 295 295 296 299 303 304 304 302 301 300 298 298 298 299 299 300 300 300 299 299 298 296 295 294 292 291 289 288 286 285 284
260 264 267 271 275 280 283 286 290 294 297 298 299 299 298 298 299 300 301 302 302 301 300 298 299 300 301 301 302 303 303 302 301 300 298 297 296 295 293 292 291 290 288 286
261 264 267 271 275 279 282 285 289 293 295 297 298 297 295 296 297 298 300 302 303 302 301 302 303 303 303 303 303 303 303 302 302 301 300 299 298 297 295 294 293 292 290 289
263 263 265 271 276 279 282 287 290 293 296 297 299 298 295 297 297 299 302 303 303 302 302 303 304 303 303 303 303 303 303 303 302 301 300 299 298 297 297 295 294 293 292 290
262 264 267 271 275 278 282 286 289 292 293 295 297 299 296 296 296 299 301 301 301 301 302 303 303 303 303 303 303 303 303 303 302 301 301 300 299 298 297 296 294 293 292 290
264 267 269 272 274 276 280 283 287 289 290 292 293 296 293 292 293 296 298 299 300 301 302 303 303 303 303 303 303 304 303 303 302 301 300 300 299 298 297 296 294 293 292 290
265 269 271 271 273 276 279 282 284 284 284 286 288 293 290 290 291 295 297 299 300 301 302 302 302 302 303 303 303 303 303 303 302 301 300 300 299 298 297 296 294 293 292 290
265 268 271 273 275 277 279 281 282 282 284 284 286 287 285 288 293 296 297 298 299 300 300 301 301 303 304 304 304 303 303 302 302 301 301 300 299 298 297 296 295 294 292 291
266 268 270 272 275 277 278 280 280 282 283 284 287 286 286 287 292 294 296 297 298 298 299 301 302 303 304 304 304 303 303 303 303 302 302 302 301 300 299 297 296 295 293 291
267 270 271 272 274 275 276 277 277 278 280 284 286 287 288 291 293 294 296 297 298 299 301 302 303 303 303 304 304 304 304 304 304 304 303 303 302 301 300 298 297 295 293 290
267 271 272 272 272 273 274 275 275 276 278 281 285 287 289 292 293 295 297 298 300 301 302 302 303 303 304 305 305 305 305 305 305 305 304 304 303 302 300 299 297 294 292 290
266 269 271 272 271 271 275 275 275 275 277 281 285 288 291 293 294 296 298 299 300 301 302 303 304 305 306 306 306 306 306 306 306 306 305 305 304 302 300 299 297 295 293 292
266 269 271 272 272 272 274 275 275 277 280 283 287 289 292 293 295 297 299 301 302 303 304 305 305 306 306 307 307 307 307 307 307 307 306 306 304 303 301 299 298 296 295 294
267 268 270 272 273 274 273 273 276 279 282 284 288 290 292 294 296 298 299 301 302 303 304 305 306 307 307 308 308 308 308 308 308 308 307 306 305 304 302 301 299 298 297 296
265 266 269 271 273 274 275 277 280 283 286 288 290 292 294 296 297 299 300 302 303 305 306 306 307 308 308 308 309 309 309 309 309 309 308 307 306 305 304 303 301 300 298 297
263 264 266 269 272 275 277 280 283 285 288 290 292 294 295 297 299 301 303 304 305 305 306 307 307 308 309 309 309 309 309 309 309 309 309 307 306 305 304 304 303 301 300 299
261 264 266 269 273 276 279 282 286 288 290 292 294 296 298 300 302 303 304 304 305 306 306 307 308 309 309 310 310 310 310 310 310 310 309 308 307 306 305 305 304 302 301 300
262 265 268 270 273 276 280 284 288 290 292 294 296 298 300 301 302 303 304 304 305 306 307 308 308 309 310 310 310 310 311 311 311 310 309 308 308 307 306 305 305 304 303 302
265 266 268 270 275 278 282 286 288 291 293 296 298 299 300 301 302 303 304 305 306 307 307 308 309 310 310 310 311 311 311 311 311 311 310 309 309 308 307 306 306 305 305 304
268 269 270 273 277 281 284 287 290 292 294 296 297 298 299 300 301 303 304 305 306 307 307 308 309 310 310 311 311 311 311 311 311 311 311 310 310 309 308 308 307 307 307 306
Height
5838 5839 5837 5837 5837 5836 5835 5835 5834 5833 5832 5831 5829 5828 5827 5825 5824 5822 5820 5818 5817 5815 5813 5811 5809 5806 5804 5802 5800 5798 5796 5794 5793 5791 5790 5789 5788 5787 5786 5784 5782 5780 5777 5775
5834 5834 5833 5832 5832 5832 5831 5831 5830 5829 5827 5826 5825 5823 5822 5821 5819 5817 5815 5813 5812 5809 5807 5805 5803 5800 5798 5796 5794 5792 5790 5788 5785 5784 5782 5781 5779 5778 5776 5774 5771 5769 5766 5764
5830 5830 5829 5828 5828 5828 5827 5827 5826 5825 5823 5822 5821 5819 5818 5816 5815 5813 5811 5808 5806 5803 5801 5799 5796 5794 5792 5789 5787 5785 5783 5781 5778 5776 5774 5772 5770 5768 5766 5763 5760 5758 5755 5753
5826 5825 5825 5825 5824 5823 5823 5822 5821 5821 5820 5818 5816 5814 5812 5811 5810 5808 5806 5803 5800 5797 5795 5792 5789 5786 5784 5782 5780 5777 5775 5773 5770 5768 5765 5763 5760 5758 5755 5753 5750 5747 5744 5741
5821 5821 5821 5821 5820 5819 5818 5817 5817 5816 5815 5813 5811 5809 5807 5805 5803 5802 5799 5797 5794 5791 5788 5784 5781 5778 5776 5773 5771 5769 5767 5764 5761 5759 5756 5753 5751 5748 5745 5742 5739 5735 5732 5728
5817 5817 5816 5816 5815 5815 5814 5813 5812 5811 5809 5809 5806 5804 5801 5798 5796 5794 5792 5789 5787 5783 5780 5777 5774 5771 5768 5766 5763 5761 5758 5755 5753 5750 5747 5743 5740 5737 5734 5730 5726 5723 5719 5715
5812 5813 5812 5811 5810 5810 5809 5808 5806 5805 5804 5803 5800 5798 5795 5792 5789 5787 5785 5782 5780 5777 5774 5771 5768 5765 5762 5759 5756 5753 5750 5747 5744 5740 5737 5733 5730 5726 5722 5718 5714 5710 5705 5701
5807 5808 5807 5806 5805 5804 5803 5802 5801 5799 5798 5796 5794 5791 5789 5785 5783 5781 5778 5776 5773 5770 5767 5764 5761 5758 5755 5752 5748 5745 5742 5738 5734 5731 5727 5723 5719 5714 5710 5705 5701 5696 5691 5686
5802 5803 5802 5801 5800 5799 5797 5796 5795 5793 5790 5789 5788 5785 5782 5779 5776 5774 5772 5769 5766 5764 5761 5758 5755 5751 5748 5744 5740 5737 5733 5729 5725 5721 5716 5711 5707 5702 5697 5692 5686 5681 5676 5670
5796 5797 5797 5795 5794 5792 5791 5790 5788 5786 5783 5781 5781 5779 5775 5772 5769 5767 5765 5762 5760 5757 5754 5751 5747 5744 5740 5736 5732 5728 5724 5719 5715 5710 5705 5700 5694 5689 5683 5677 5671 5665 5659 5653
5789 5790 5791 5789 5788 5786 5785 5783 5781 5778 5777 5775 5773 5774 5769 5765 5762 5760 5758 5755 5753 5750 5747 5743 5739 5735 5731 5726 5722 5718 5713 5708 5703 5698 5692 5686 5680 5674 5668 5662 5655 5648 5642 5635
5782 5783 5783 5782 5781 5779 5778 5776 5774 5772 5770 5767 5765 5769 5762 5759 5756 5754 5751 5748 5745 5742 5738 5734 5730 5725 5721 5716 5711 5706 5701 5695 5690 5684 5678 5672 5665 5658 5651 5644 5637 5629 5622 5615
5775 5775 5775 5775 5776 5773 5770 5769 5767 5764 5763 5760 5759 5762 5754 5751 5749 5747 5744 5741 5737 5733 5729 5725 5720 5715 5710 5705 5700 5694 5688 5682 5676 5669 5663 5655 5648 5640 5632 5625 5617 5609 5601 5594
5767 5767 5768 5768 5765 5763 5762 5761 5758 5756 5754 5752 5753 5752 5749 5744 5741 5739 5735 5732 5728 5724 5719 5714 5709 5704 5698 5693 5687 5681 5674 5668 5661 5653 5645 5637 5629 5621 5612 5603 5595 5587 5579 5572
5758 5759 5758 5758 5757 5754 5754 5753 5750 5747 5745 5744 5745 5742 5741 5737 5734 5731 5727 5723 5718 5713 5708 5703 5697 5692 5686 5679 5673 5666 5659 5651 5643 5635 5626 5617 5608 5599 5590 5581 5572 5564 5556 5548
5749 5749 5749 5749 5748 5745 5745 5745 5742 5740 5737 5735 5734 5733 5731 5728 5725 5721 5717 5712 5707 5702 5696 5691 5685 5679 5672 5665 5658 5650 5642 5633 5624 5615 5606 5596 5587 5577 5567 5558 5549 5541 5533 5525
5741 5740 5739 5739 5739 5737 5737 5736 5734 5732 5729 5728 5726 5725 5722 5719 5714 5710 5705 5700 5695 5690 5684 5677 5671 5664 5657 5649 5641 5633 5624 5615 5605 5594 5584 5574 5564 5555 5545 5535 5526 5518 5510 5504
5732 5731 5729 5729 5730 5729 5731 5727 5724 5722 5721 5719 5717 5714 5711 5708 5703 5698 5693 5688 5683 5676 5670 5663 5655 5648 5640 5631 5623 5614 5605 5594 5584 5573 5563 5552 5542 5532 5523 5514 5505 5496 5489 5483
5723 5721 5720 5718 5718 5719 5720 5717 5714 5713 5712 5710 5707 5704 5700 5696 5691 5687 5681 5675 5668 5662 5655 5647 5639 5631 5623 5614 5605 5595 5585 5574 5563 5553 5542 5531 5520 5511 5502 5494 5485 5477 5470 5464
5712 5711 5710 5708 5707 5708 5711 5708 5705 5704 5702 5700 5696 5693 5689 5684 5680 5676 5669 5662 5655 5648 5640 5632 5623 5614 5604 5595 5585 5575 5565 5554 5543 5533 5522 5511 5501 5491 5483 5475 5467 5459 5452 5446
5703 5701 5700 5698 5696 5697 5698 5696 5695 5694 5692 5688 5684 5680 5676 5671 5666 5660 5653 5646 5639 5631 5623 5614 5605 5595 5585 5575 5565 5556 5545 5534 5524 5513 5503 5493 5483 5473 5465 5457 5450 5442 5435 5429
5692 5691 5690 5688 5686 5688 5686 5685 5684 5682 5679 5675 5671 5667 5662 5657 5651 5644 5637 5630 5622 5614 5606 5597 5588 5579 5567 5556 5546 5537 5526 5516 5506 5496 5486 5477 5467 5458 5449 5441 5434 5426 5419 5413
5681 5682 5680 5680 5679 5675 5674 5672 5670 5668 5665 5661 5657 5652 5647 5641 5635 5628 5621 5614 5606 5597 5589 5579 5570 5561 5550 5538 5526 5516 5507 5497 5488 5479 5470 5461 5452 5443 5434 5426 5418 5412 5404 5398
5671 5670 5669 5668 5667 5664 5662 5660 5658 5655 5651 5646 5642 5637 5631 5625 5619 5612 5605 5597 5589 5580 5571 5562 5553 5543 5534 5522 5510 5498 5489 5480 5472 5464 5455 5446 5437 5429 5421 5412 5405 5397 5390 5384
5661 5659 5657 5656 5655 5653 5651 5648 5645 5641 5637 5632 5627 5621 5616 5610 5603 5596 5589 5581 5572 5563 5554 5544 5535 5525 5516 5506 5495 5484 5474 5465 5457 5449 5441 5432 5423 5415 5408 5400 5392 5385 5378 5370
5649 5647 5645 5646 5645 5642 5640 5636 5632 5628 5624 5619 5614 5608 5601 5594 5588 5580 5573 5564 5555 5546 5537 5527 5518 5508 5498 5489 5480 5470 5460 5451 5442 5435 5427 5419 5410 5403 5395 5388 5382 5374 5366 5360